Date,TemperatureHighF,TemperatureAvgF,TemperatureLowF,DewpointHighF,DewpointAvgF,DewpointLowF,HumidityHigh,HumidityAvg,HumidityLow,PressureMaxIn,PressureMinIn,WindSpeedMaxMPH,WindSpeedAvgMPH,GustSpeedMaxMPH,PrecipitationSumIn
2013-3-1,30,22,16,13,8,3,62,53,35,30.19,30.07,24,6,24,0.00
2013-3-2,29,18,2,13,4,-7,66,54,42,30.15,30.00,13,3,13,0.00
2013-3-3,3,2,2,-6,-7,-7,66,65,65,30.00,29.99,2,0,2,0.00
2013-3-5,30,26,12,20,16,3,71,65,56,30.01,29.91,18,6,18,0.00
2013-3-6,27,26,26,19,18,17,73,71,65,30.04,30.01,16,9,16,0.00
2013-3-8,49,31,18,27,17,7,79,57,26,29.94,29.67,11,3,11,0.00
2013-3-9,37,33,25,31,26,17,87,74,54,29.75,29.30,14,3,14,0.20
2013-3-10,38,34,32,32,28,21,89,77,62,29.53,29.29,21,5,21,0.04
2013-3-11,32,27,23,28,22,18,89,82,76,29.49,29.22,23,10,26,0.00
2013-3-12,23,21,19,18,14,9,83,73,57,29.93,29.24,22,7,22,0.00
2013-3-13,34,26,17,13,6,1,69,43,27,30.15,29.92,17,6,17,0.01
2013-3-14,46,26,6,27,10,-4,66,51,21,30.13,29.82,10,2,10,0.00
2013-3-15,38,26,15,28,11,-4,72,53,39,29.95,29.82,18,8,18,0.00
2013-3-16,30,19,14,14,6,-5,71,58,37,30.06,29.89,24,5,24,0.00
2013-3-17,34,21,11,18,-4,-9,78,33,21,30.18,29.93,21,4,21,0.00
2013-3-18,34,27,21,26,15,-4,85,62,30,29.93,29.38,17,5,17,0.00
2013-3-19,28,23,20,24,17,12,83,77,63,29.80,29.34,25,11,25,0.01
2013-3-20,26,20,16,14,8,5,76,60,43,29.93,29.78,21,7,21,0.00
2013-3-21,30,22,9,14,9,-1,69,57,44,29.93,29.90,11,4,11,0.00
2013-3-22,37,23,7,24,13,-2,81,65,51,30.01,29.91,11,3,11,0.00
2013-3-23,43,29,20,25,18,12,73,63,45,30.08,30.00,9,2,9,0.00
2013-3-24,34,26,17,26,18,9,80,69,57,30.06,29.91,20,3,20,0.02
2013-3-25,36,31,21,28,22,14,84,68,51,30.07,29.88,16,6,16,0.05
2013-3-26,42,35,30,30,27,22,81,72,58,30.14,30.06,9,2,9,0.00
2013-3-27,47,36,24,30,25,15,77,64,42,30.20,30.13,9,2,9,0.00
2013-3-28,48,33,17,29,19,9,75,58,31,30.22,30.17,9,2,9,0.00
2013-3-29,55,36,17,23,16,9,76,48,21,30.18,30.00,6,1,6,0.00
2013-3-30,48,39,31,39,32,19,92,75,52,30.00,29.61,9,2,9,0.24
2013-3-31,38,36,36,34,32,32,86,85,84,29.61,29.58,7,0,7,0.00